TimeCDT,TemperatureF,Dew PointF,Humidity,Sea Level PressureIn,VisibilityMPH,Wind Direction,Wind SpeedMPH,Gust SpeedMPH,PrecipitationIn,Events,Conditions,WindDirDegrees,DateUTC
12:56 AM,64.0,61.0,90,29.97,10.0,Calm,Calm,-,N/A,,Clear,0,2013-09-30 05:56:00
1:56 AM,66.0,61.0,84,29.96,10.0,Calm,Calm,-,N/A,,Clear,0,2013-09-30 06:56:00
2:56 AM,64.0,60.1,87,29.95,10.0,Calm,Calm,-,N/A,,Clear,0,2013-09-30 07:56:00
3:56 AM,64.0,60.1,87,29.96,10.0,Calm,Calm,-,N/A,,Clear,0,2013-09-30 08:56:00
4:56 AM,63.0,59.0,87,29.97,10.0,Calm,Calm,-,N/A,,Clear,0,2013-09-30 09:56:00
5:56 AM,64.0,59.0,84,29.99,10.0,ENE,3.5,-,N/A,,Clear,70,2013-09-30 10:56:00
6:56 AM,64.9,59.0,81,30.01,10.0,Calm,Calm,-,N/A,,Mostly Cloudy,0,2013-09-30 11:56:00
7:56 AM,64.9,60.1,84,30.01,10.0,Calm,Calm,-,N/A,,Overcast,0,2013-09-30 12:56:00
8:56 AM,66.0,61.0,84,30.03,10.0,Calm,Calm,-,0.00,,Overcast,0,2013-09-30 13:56:00
9:56 AM,69.1,62.1,78,30.04,10.0,Calm,Calm,-,N/A,,Overcast,0,2013-09-30 14:56:00
10:56 AM,72.0,64.0,76,30.03,10.0,NE,3.5,-,N/A,,Overcast,40,2013-09-30 15:56:00
11:56 AM,75.0,64.9,71,30.03,10.0,Calm,Calm,-,N/A,,Scattered Clouds,0,2013-09-30 16:56:00
12:56 PM,78.1,64.9,64,30.00,10.0,Variable,3.5,-,N/A,,Clear,0,2013-09-30 17:56:00
1:56 PM,78.1,64.9,64,29.97,10.0,Calm,Calm,-,0.00,,Mostly Cloudy,0,2013-09-30 18:56:00
2:56 PM,78.1,64.0,62,29.96,10.0,Calm,Calm,-,N/A,,Overcast,0,2013-09-30 19:56:00
3:56 PM,79.0,64.0,60,29.96,10.0,Calm,Calm,-,N/A,,Overcast,0,2013-09-30 20:56:00
4:56 PM,77.0,66.9,71,29.96,10.0,North,3.5,-,N/A,,Overcast,10,2013-09-30 21:56:00
5:56 PM,75.0,66.9,76,29.98,10.0,North,4.6,-,N/A,,Overcast,350,2013-09-30 22:56:00
6:56 PM,73.0,66.0,79,29.99,10.0,Calm,Calm,-,N/A,,Overcast,0,2013-09-30 23:56:00
7:56 PM,72.0,66.0,81,30.00,10.0,Calm,Calm,-,N/A,,Overcast,0,2013-10-01 00:56:00
8:56 PM,71.1,66.9,87,30.00,10.0,Calm,Calm,-,N/A,,Overcast,0,2013-10-01 01:56:00
9:56 PM,70.0,66.0,87,30.01,10.0,Calm,Calm,-,N/A,,Overcast,0,2013-10-01 02:56:00
10:56 PM,70.0,66.9,90,30.01,10.0,Calm,Calm,-,N/A,,Overcast,0,2013-10-01 03:56:00
11:56 PM,70.0,66.0,87,30.01,10.0,Calm,Calm,-,N/A,,Overcast,0,2013-10-01 04:56:00